Location: Finkenwalde
(53.3770°N, 14.6418°E)
Time: 10:43:19
(UTC+00:00)

Cosmos 1606 - Pass Details

Date: 05 February 2023
Orbit: 488 x 510 km, 82.5° (Epoch: 19 March)

Event Time Altitude Azimuth Distance (km) Brightness Sun altitude
Rises 17:59:49 0° 349° (NNW) 2,650 6.4 -19.2°
Reaches altitude 10° 18:01:58 10° 349° (N) 1,759 5.5 -19.6°
Maximum altitude 18:05:50 88° 80° (E) 525 2.6 -20.1°
Enters shadow 18:08:25 20° 169° (S) 1,235 4.5 -20.5°
